Dewpoint
-9 -9 -9 -9 -8 -8 -7 -6 -6 -6 -6 -7 -8 -13 -12 -8 -8 -10 -15 -15 -16 -9 -8 -8 -5 -3 -3 -3 -3 -0 4 4
-9 -9 -9 -9 -8 -8 -7 -6 -5 -6 -6 -7 -8 -14 -10 -7 -9 -13 -16 -11 -7 -5 -5 -4 -4 -4 -4 -3 -3 -2 1 5
-9 -10 -10 -8 -7 -7 -6 -5 -5 -6 -6 -7 -11 -10 -7 -8 -9 -10 -11 -8 -5 -5 -5 -5 -5 -5 -4 -3 -4 -3 -2 1
-10 -10 -9 -7 -6 -7 -5 -5 -5 -6 -7 -10 -11 -9 -8 -8 -8 -8 -8 -9 -6 -6 -5 -5 -5 -5 -5 -5 -4 -4 -3 -1
-11 -10 -8 -6 -6 -6 -5 -5 -6 -7 -10 -11 -7 -7 -8 -8 -7 -6 -7 -7 -7 -6 -6 -6 -5 -5 -5 -5 -5 -6 -4 -2
-10 -9 -7 -4 -7 -5 -5 -6 -7 -9 -11 -8 -7 -8 -10 -8 -7 -6 -6 -7 -8 -7 -7 -7 -6 -6 -5 -5 -6 -7 -4 -3
-9 -8 -5 -5 -6 -5 -6 -7 -9 -11 -10 -7 -7 -8 -7 -7 -7 -7 -7 -7 -8 -8 -8 -7 -7 -7 -6 -6 -6 -7 -4 -4
-8 -6 -4 -6 -6 -6 -7 -9 -12 -10 -10 -7 -8 -7 -8 -7 -7 -6 -7 -8 -8 -8 -8 -7 -7 -8 -7 -6 -8 -7 -4 -4
-7 -5 -4 -6 -7 -7 -9 -12 -12 -9 -9 -8 -8 -8 -8 -8 -7 -6 -8 -8 -7 -7 -7 -8 -7 -8 -7 -8 -8 -6 -5 -4
-6 -5 -4 -7 -7 -9 -11 -12 -11 -9 -8 -9 -10 -9 -9 -9 -9 -9 -8 -8 -7 -7 -8 -8 -7 -8 -7 -8 -8 -6 -5 -4
-6 -4 -6 -7 -9 -10 -12 -12 -10 -9 -9 -9 -8 -8 -10 -12 -10 -8 -8 -8 -7 -7 -8 -8 -8 -7 -7 -9 -8 -6 -5 -5
-6 -5 -7 -8 -9 -12 -12 -12 -10 -8 -9 -8 -7 -8 -9 -14 -9 -8 -7 -8 -8 -8 -8 -7 -8 -7 -7 -9 -8 -6 -6 -5
-6 -7 -8 -9 -11 -12 -14 -12 -10 -9 -9 -8 -7 -8 -9 -14 -10 -7 -7 -8 -8 -8 -8 -9 -8 -7 -7 -8 -7 -7 -6 -5
-8 -8 -9 -10 -12 -13 -14 -12 -9 -9 -9 -8 -7 -8 -9 -13 -10 -8 -8 -8 -9 -9 -9 -8 -9 -7 -8 -7 -7 -7 -7 -6
-8 -8 -9 -11 -13 -13 -14 -11 -10 -10 -10 -8 -8 -8 -9 -14 -10 -8 -9 -9 -9 -9 -9 -8 -9 -8 -8 -8 -7 -7 -6 -6
-8 -9 -9 -12 -13 -13 -13 -11 -10 -11 -11 -9 -8 -8 -9 -14 -11 -9 -9 -9 -9 -10 -10 -9 -9 -8 -8 -8 -7 -7 -7 -7
-8 -9 -11 -13 -13 -12 -13 -11 -10 -12 -11 -10 -8 -8 -9 -14 -12 -9 -10 -11 -10 -10 -10 -10 -9 -8 -8 -8 -8 -7 -7 -7
-8 -9 -13 -14 -13 -12 -12 -11 -11 -12 -13 -10 -9 -8 -9 -14 -12 -11 -10 -11 -11 -10 -10 -10 -9 -8 -8 -8 -8 -7 -7 -7
-9 -10 -13 -14 -13 -12 -11 -11 -12 -13 -15 -10 -8 -8 -10 -14 -12 -11 -10 -10 -11 -11 -10 -10 -9 -9 -8 -8 -9 -8 -8 -7
Wind_Speed
12 16 20 23 24 27 30 30 33 36 40 44 45 42 36 34 37 41 39 33 27 22 25 23 24 28 31 28 19 13 14 18
11 15 19 20 23 26 25 28 31 35 40 44 46 42 37 38 41 39 36 28 26 24 27 26 25 27 30 31 24 16 9 13
12 16 17 19 22 22 22 25 29 33 37 40 41 36 35 37 39 36 36 28 23 24 25 25 25 26 29 32 31 24 15 12
14 17 15 18 21 19 20 23 28 32 36 39 36 34 37 39 36 35 35 34 25 24 25 25 24 25 26 29 31 26 21 12
14 11 14 22 22 16 18 23 27 31 36 34 31 32 36 31 30 31 32 34 26 25 24 25 25 24 25 26 28 31 20 18
11 10 14 23 19 13 17 22 27 31 33 28 29 34 28 27 28 29 31 34 27 23 23 23 24 23 24 23 27 29 17 15
6 8 16 19 13 14 19 23 28 30 28 26 30 30 29 31 32 32 33 37 30 22 23 22 22 21 23 25 26 24 17 13
7 14 19 14 13 15 20 25 28 27 28 26 28 25 29 31 32 32 35 36 27 22 21 22 22 21 19 26 28 21 18 15
9 15 17 10 13 17 22 25 25 25 29 28 25 28 30 33 33 33 33 28 24 22 21 21 22 23 19 29 27 20 18 16
11 16 12 10 14 18 21 23 22 25 28 28 30 30 32 35 33 29 25 24 23 22 22 22 22 21 21 31 26 22 18 18
13 14 7 10 14 17 20 21 21 23 26 27 28 32 33 36 30 24 23 23 23 23 22 22 24 22 21 31 26 22 20 19
14 6 5 10 13 17 20 19 20 22 25 26 27 31 34 36 28 22 22 24 24 24 23 23 24 21 24 31 27 22 20 19
4 4 5 9 13 16 20 18 19 22 22 24 25 30 34 36 27 24 25 25 24 23 23 24 24 22 28 30 27 22 19 21
7 5 5 8 12 16 19 18 18 22 20 22 24 29 34 35 29 25 24 23 24 24 23 24 26 21 27 29 26 22 20 19
10 5 4 8 11 16 17 17 19 21 21 21 23 28 33 33 27 23 24 23 24 24 23 23 26 23 28 30 27 20 20 18
11 5 5 7 10 15 15 16 19 20 20 20 22 26 31 31 27 23 24 24 23 23 24 23 23 26 28 29 25 22 20 20
9 4 4 7 11 14 15 16 19 20 19 19 20 25 30 29 25 24 25 26 25 23 24 24 24 25 27 27 24 22 22 22
7 3 4 7 11 14 15 15 18 19 20 18 21 24 29 27 23 24 25 27 25 23 24 24 23 23 27 27 25 23 22 22
6 2 4 6 11 12 14 15 16 20 20 19 21 24 28 25 21 23 23 24 26 24 24 24 23 23 26 26 26 23 22 21
Wind_Direction
23 2 359 1 1 357 354 353 355 356 354 354 354 355 354 353 351 349 346 348 350 343 347 350 354 354 358 360 340 320 297 313
4 359 360 2 358 354 346 349 352 351 352 352 351 353 354 353 354 354 354 351 357 1 359 359 2 359 354 359 359 340 331 310
358 356 356 4 351 342 340 346 348 349 349 350 350 354 355 354 355 358 0 0 0 360 356 356 3 1 355 357 3 357 346 347
354 354 9 358 344 337 337 343 345 347 347 347 353 355 353 351 357 2 6 11 1 4 358 358 2 3 357 355 357 2 347 340
348 5 8 346 343 338 334 339 345 345 347 354 360 357 350 355 358 359 3 10 7 3 2 1 1 360 359 353 354 356 355 345
351 5 346 341 340 334 337 342 344 346 355 358 359 355 358 357 355 352 356 2 6 4 3 359 359 359 356 351 346 352 359 351
10 357 336 336 339 338 339 346 349 355 359 0 358 359 358 353 351 351 352 352 0 6 2 357 356 355 351 344 346 351 360 357
355 339 341 339 340 343 347 350 354 1 4 0 359 357 354 353 351 351 348 349 1 6 4 355 355 356 350 348 351 354 2 1
339 338 336 327 342 346 349 353 359 4 7 -0 357 357 356 354 352 347 347 357 3 2 1 356 359 1 4 355 355 359 3 8
334 337 324 322 342 347 352 359 4 4 4 1 6 2 358 353 348 350 1 1 1 360 1 2 4 6 354 355 360 5 7 10
327 326 302 326 341 349 356 0 3 3 2 2 4 4 360 354 356 4 5 2 359 358 0 2 3 4 352 358 3 7 15 11
318 291 289 325 343 353 356 360 1 360 1 2 1 1 0 360 -0 7 6 3 0 360 1 2 4 6 351 357 6 8 12 10
261 227 296 330 350 356 355 358 0 359 358 359 357 359 0 2 3 9 9 2 1 0 2 4 5 359 354 359 5 11 10 6
201 237 302 338 354 354 355 358 0 356 355 356 354 359 1 3 4 10 5 357 0 3 4 4 6 356 353 6 9 12 10 6
214 241 306 343 354 352 355 359 358 354 350 355 354 360 1 3 6 8 3 2 3 4 4 4 4 6 11 8 9 12 11 9
212 240 313 344 352 352 356 357 355 352 354 357 357 358 1 3 8 6 5 5 6 5 7 9 6 12 13 9 10 15 12 9
204 248 316 337 353 354 355 355 355 352 355 358 356 358 0 3 6 7 9 9 9 10 13 13 10 14 13 14 15 18 20 16
207 256 313 346 355 355 352 353 354 352 354 359 356 359 360 3 3 8 12 14 15 20 18 18 16 17 17 16 18 23 20 23
204 252 338 350 355 351 354 350 355 352 356 357 355 358 358 1 4 10 14 16 19 21 21 20 19 21 21 16 19 24 27 26
Height
1601 1599 1597 1594 1591 1587 1582 1578 1572 1567 1562 1555 1549 1542 1535 1530 1523 1516 1509 1503 1499 1493 1488 1484 1479 1476 1472 1467 1459 1455 1458 1453
1602 1599 1596 1594 1591 1586 1582 1577 1572 1566 1559 1551 1545 1540 1534 1528 1522 1516 1508 1502 1497 1493 1489 1484 1480 1476 1471 1468 1465 1461 1453 1453
1601 1598 1596 1593 1589 1585 1581 1576 1571 1566 1559 1553 1546 1540 1535 1529 1523 1516 1509 1502 1498 1494 1489 1484 1480 1476 1472 1466 1462 1457 1455 1455
1600 1598 1595 1592 1588 1584 1580 1575 1571 1565 1559 1552 1546 1540 1535 1528 1522 1516 1510 1504 1499 1495 1490 1485 1480 1477 1474 1469 1462 1460 1457 1455
1599 1597 1594 1590 1586 1583 1580 1576 1570 1565 1559 1552 1546 1542 1535 1529 1524 1518 1513 1506 1500 1496 1491 1487 1481 1478 1475 1470 1466 1460 1455 1450
1597 1596 1593 1589 1585 1583 1579 1575 1570 1564 1558 1552 1547 1542 1536 1530 1525 1518 1512 1507 1501 1496 1491 1487 1483 1478 1475 1471 1465 1460 1455 1451
1597 1595 1592 1588 1585 1582 1579 1574 1569 1563 1557 1553 1548 1542 1535 1529 1523 1517 1511 1505 1500 1496 1491 1488 1484 1479 1474 1470 1465 1459 1455 1452
1596 1593 1590 1587 1584 1582 1578 1574 1568 1563 1558 1553 1548 1542 1536 1530 1524 1517 1510 1503 1498 1495 1491 1487 1483 1479 1475 1469 1463 1459 1455 1452
1594 1591 1589 1586 1584 1581 1577 1573 1567 1563 1558 1553 1548 1543 1536 1531 1524 1517 1510 1504 1499 1495 1491 1487 1482 1478 1475 1470 1463 1458 1455 1454
1592 1590 1587 1585 1583 1580 1576 1571 1567 1563 1558 1553 1548 1543 1536 1530 1523 1517 1510 1505 1500 1495 1491 1486 1481 1477 1474 1469 1463 1458 1455 1452
1589 1587 1586 1585 1583 1579 1575 1571 1567 1563 1558 1553 1548 1543 1536 1529 1522 1516 1511 1506 1500 1495 1491 1486 1481 1477 1473 1468 1462 1458 1456 1453
1587 1585 1585 1584 1582 1578 1574 1570 1566 1563 1558 1554 1549 1543 1536 1529 1522 1517 1512 1507 1501 1496 1491 1486 1481 1477 1472 1467 1461 1457 1455 1453
1584 1584 1584 1583 1580 1577 1573 1569 1566 1562 1557 1554 1548 1543 1536 1529 1522 1518 1513 1507 1502 1497 1491 1486 1482 1477 1472 1466 1461 1457 1454 1451
1583 1583 1583 1581 1579 1576 1572 1569 1565 1561 1557 1553 1548 1543 1536 1529 1523 1518 1514 1509 1503 1498 1492 1487 1482 1477 1472 1466 1461 1457 1454 1451
1581 1581 1581 1580 1578 1574 1571 1568 1565 1561 1557 1552 1548 1542 1537 1530 1524 1520 1515 1509 1504 1498 1493 1488 1483 1478 1472 1467 1462 1458 1454 1451
1579 1580 1580 1579 1576 1573 1570 1567 1564 1560 1555 1552 1547 1543 1538 1531 1526 1521 1516 1510 1505 1499 1494 1489 1484 1479 1474 1469 1463 1459 1455 1451
1578 1579 1579 1577 1574 1572 1569 1566 1563 1559 1555 1551 1547 1543 1537 1532 1527 1522 1516 1510 1505 1500 1495 1490 1485 1480 1475 1471 1465 1460 1456 1452
1577 1578 1577 1575 1573 1571 1568 1566 1562 1558 1554 1550 1547 1542 1538 1532 1528 1523 1517 1512 1507 1502 1497 1492 1487 1482 1477 1472 1467 1463 1458 1454
1575 1576 1574 1573 1571 1570 1567 1565 1561 1557 1553 1550 1546 1542 1537 1533 1528 1524 1519 1515 1509 1503 1499 1494 1490 1485 1480 1475 1471 1466 1461 1456